Location: Colonia Mina de C?rbuni
(46.1667°N, 22.7167°E)
Time: 16:15:13
(UTC+00:00)

Courier 1B - Pass Details

Date: 28 April 2024
Orbit: 962 x 1208 km, 28.3° (Epoch: 23 May)

Event Time Altitude Azimuth Distance (km) Brightness Sun altitude
Rises 20:32:07 0° 215° (SW) 4,092 - -24.1°
Reaches altitude 10° 20:36:34 10° 192° (SSW) 3,138 - -24.5°
Maximum altitude 20:40:24 14° 163° (SSE) 2,813 - -24.8°
Drops below altitude 10° 20:44:12 10° 133° (SE) 3,122 - -25.1°
Sets 20:48:36 0° 111° (ESE) 4,058 - -25.4°
